#timestamp,LO_Frequency,Hit,StdDev 
1522299615.2,286047009.2,N
1522299635.0,286047009.8,N
1522299636.0,286047009.8,N
1522299655.8,286047011.2,N
1522299675.6,286047012.7,N
1522299695.5,286047012.2,N
1522299715.3,286047009.5,N
1522299735.1,286047013.7,N
1522299755.9,286047012.0,N
1522299775.7,286047008.0,N
1522299795.5,286047008.6,N
1522299815.4,286047010.7,N
1522299835.2,286047007.6,N
1522299855.1,286047003.2,N
1522299856.0,286047003.2,N
1522299875.8,286047001.3,N
1522299895.7,286047005.6,N
1522299915.5,286047007.2,N
1522299935.3,286047005.3,N
1522299955.2,286047007.5,N
1522299975.9,286047003.7,N
1522299995.7,286047003.2,N
1522300015.6,286047003.1,N
1522300035.4,286047003.3,N
1522300055.3,286047001.5,N
1522300075.1,286047002.5,N
1522300076.0,286047002.5,N
1522300095.8,286047002.2,N
1522300115.7,286047004.3,N
1522300135.5,286047001.7,N
1522300155.3,286047001.3,N
1522300175.2,286047001.7,N
1522300195.0,286047002.2,N
1522300195.9,286047002.2,N
1522300215.8,286047001.6,N
1522300235.6,286047004.2,N
1522300255.4,286047002.8,N
1522300275.3,286046999.7,N
1522300295.1,286047002.5,N
1522300315.9,286047002.1,N
1522300335.7,286046998.2,N
1522300355.5,286046999.6,N
1522300375.4,286047001.1,N
1522300395.2,286047001.3,N
1522300415.1,286047006.0,Y
1522300416.0,286047006.0,P
1522300435.8,286047001.2,N
1522300455.6,286046999.6,N
1522300475.5,286046997.7,N
1522300495.3,286047001.6,N
1522300515.2,286047002.9,N
1522300535.9,286047002.4,N
1522300555.7,286047000.5,N
1522300575.6,286046997.1,N
1522300595.4,286046997.0,N
1522300615.2,286047001.5,N
1522300635.1,286047003.3,N
1522300636.0,286047003.3,N
1522300655.8,286047003.1,N
1522300675.7,286047008.2,Y
1522300695.5,286047008.9,P
1522300715.3,286047006.8,N
1522300735.2,286047006.0,N
1522300755.0,286047004.0,N
1522300755.9,286047004.0,N
1522300775.8,286047003.5,N
1522300795.6,286047003.9,N
1522300815.4,286047006.0,N
1522300835.3,286047007.0,Y
1522300855.1,286047002.0,P
1522300875.9,286047002.4,N
1522300895.7,286047000.3,N
1522300915.5,286046999.1,N
1522300935.4,286046994.9,N
1522300955.2,286046994.9,N
1522300975.1,286046995.2,N
1522300976.0,286046995.2,N
1522300995.8,286046993.7,N
1522301015.7,286046993.5,N
1522301035.5,286046992.3,N
1522301055.3,286046994.6,N
1522301075.2,286046991.8,N
1522301095.0,286046993.9,N
1522301095.9,286046993.9,N
1522301115.8,286046991.8,N
1522301135.6,286046993.3,N
1522301155.4,286046995.6,N
1522301175.3,286046995.7,N
1522301195.1,286046994.2,N
1522301215.8,286046996.0,N
1522301235.7,286046996.0,N
1522301255.5,286046993.8,N
1522301275.4,286046993.3,N
1522301295.2,286046993.5,N
1522301315.0,286046999.8,N
1522301315.9,286046999.8,N
1522301335.8,286047003.8,N
1522301355.6,286046999.7,N
1522301375.5,286046997.9,N
1522301395.3,286046995.9,N
1522301415.1,286046994.1,N
1522301435.9,286046992.3,N
1522301455.7,286046996.2,N
1522301475.5,286046996.2,N
1522301495.4,286046994.1,N
1522301515.2,286046993.5,N
1522301535.1,286046997.8,N
1522301536.0,286046997.8,N
1522301555.8,286046998.5,N
1522301575.6,286046998.5,N
1522301595.5,286047000.7,N
1522301615.3,286046996.5,N
1522301635.2,286046996.6,N
1522301655.9,286046997.5,N
1522301675.7,286046997.4,N
1522301695.6,286046991.8,Y
1522301715.4,286046995.2,P
1522301735.2,286046993.8,P
1522301755.1,286046993.4,P
1522301756.0,286046993.4,Y
1522301775.8,286047000.7,P
1522301795.7,286047001.9,N
1522301815.5,286047000.2,N
1522301835.3,286047000.9,N
1522301855.2,286047002.4,N
1522301875.0,286046999.9,N
1522301875.9,286046999.9,N
1522301895.8,286046998.2,N
1522301915.6,286046999.2,N
1522301935.4,286046996.7,N
1522301955.3,286046995.6,N
1522301975.1,286046993.3,N
1522301995.8,286046999.1,N
1522302015.7,286046999.5,N
1522302035.5,286046998.5,N
1522302055.4,286047000.8,N
1522302075.2,286046998.2,N
1522302125.1,286047000.1,E
1522302135.9,286047000.2,N
1522302155.7,286047011.9,P
1522302175.6,286047004.0,N
1522302195.4,286047005.2,N
1522302215.2,286047004.5,N
1522302235.1,286047003.4,N
1522302236.0,286047003.4,N
1522302255.8,286047000.1,N
1522302275.6,286047001.2,N
1522302295.5,286046997.0,N
1522302315.3,286046997.2,N
1522302335.2,286046997.8,N
1522302355.9,286046997.8,N
1522302375.7,286046999.2,N
1522302395.6,286046998.1,N
1522302415.4,286046999.0,N
1522302435.2,286046996.5,N
1522302455.1,286047001.0,N
1522302456.0,286047001.0,N
1522302475.8,286047001.2,N
1522302495.7,286046999.6,N
1522302515.5,286046997.4,N
1522302535.3,286046998.1,N
1522302555.2,286047001.2,N
1522302575.0,286047000.5,N
1522302575.9,286047000.5,N
1522302595.8,286047001.2,N
1522302615.6,286046999.1,N
1522302635.4,286046999.0,N
1522302655.3,286046999.2,N
1522302675.1,286046999.1,N
1522302695.8,286046995.3,N
1522302715.7,286046995.0,N
1522302735.5,286046996.0,N
1522302755.4,286046994.0,N
1522302775.2,286046994.8,N
1522302795.0,286046994.8,N
1522302795.9,286046994.8,N
1522302815.8,286046994.1,N
1522302835.6,286046996.0,N
1522302855.5,286046996.8,N
1522302875.3,286046997.0,N
1522302895.1,286046997.1,N
1522302915.9,286046997.7,N
1522302935.7,286046999.3,N
1522302955.5,286046996.6,N
1522302975.4,286046997.2,N
1522302995.2,286046995.3,N
1522303015.1,286046993.5,N
1522303016.0,286046993.5,N
1522303035.8,286046996.4,N
1522303055.6,286046993.8,N
1522303075.5,286046996.0,N
1522303095.3,286046995.7,N
1522303115.1,286046995.1,N
1522303135.9,286046995.8,N
1522303155.7,286046996.4,N
1522303175.6,286046996.1,N
1522303195.4,286046996.4,N
